KUZGTU 1 (RS47S)

Last updated on Sun Dec 14 2025 00:03:11 GMT+0000 (Coordinated Universal Time)

1 57217U 23091AV 25347.31978112 .00020359 00000+0 81795-3 0 9991 2 57217 97.5352 45.2950 0013027 37.2193 322.9945 15.24897167136002
UTC large
Height (km)
Speed (km/s)
/
Latitude / Longitude
Inclination (degrees)
Orbital Period (minutes)
Azimuth
Elevation
Range (km)
Doppler Factor

Next 0 passes for location: London (51.5072 / 0.1276)

Sorry there are no passes over London.